Location: Burla
(50.9568°N, 10.4983°E)
Time: 08:38:31
(UTC+00:00)

Cosmos 1758 - Pass Details

Date: 18 January 2026
Orbit: 479 x 500 km, 82.5° (Epoch: 14 February)

Event Time Altitude Azimuth Distance (km) Brightness Sun altitude
Rises 05:30:30 0° 208° (SSW) 2,575 6.6 -15.5°
Reaches altitude 10° 05:32:43 10° 217° (SW) 1,694 5.6 -15.1°
Maximum altitude 05:36:12 37° 286° (WNW) 779 3.6 -14.6°
Drops below altitude 10° 05:39:40 10° 356° (N) 1,695 5.6 -14.1°
Sets 05:41:54 0° 5° (N) 2,578 6.6 -13.7°
